Location: Roland
(31.1349°N, 85.4372°W)
Time: 04:44:04
(UTC+00:00)

Courier 1B - Pass Details

Date: 26 April 2021
Orbit: 962 x 1209 km, 28.3° (Epoch: 07 May)

Event Time Altitude Azimuth Distance (km) Brightness Sun altitude
Rises 15:21:02 0° 242° (WSW) 3,962 10.4 53.8°
Reaches altitude 10° 15:23:58 10° 237° (WSW) 2,967 9.9 54.4°
Maximum altitude 15:30:55 50° 164° (SSE) 1,323 9.5 55.8°
Drops below altitude 10° 15:37:28 10° 91° (E) 2,795 10.6 57.0°
Sets 15:40:09 0° 86° (E) 3,716 11.0 57.6°
